[Iaude] MPEC U200: 2017 UD5 [a=1.17,e=0.15,i=10.7,H=25.9]

mpec at mpcdb1.cfa.harvard.edu mpec at mpcdb1.cfa.harvard.edu
Thu Oct 26 14:47:16 EDT 2017


M.P.E.C. 2017-U200                               Issued 2017 Oct. 26, 18:44 UT
 
     The Minor Planet Electronic Circulars contain information on unusual
         minor planets and routine data on comets.  They are published
    on behalf of Division F of the International Astronomical Union by the
          Minor Planet Center, Smithsonian Astrophysical Observatory,
                          Cambridge, MA 02138, U.S.A.

             Prepared using the Tamkin Foundation Computer Network

                              MPC at CFA.HARVARD.EDU
            URL http://www.minorplanetcenter.net/    ISSN 1523-6714


                                   2017 UD5
 
Observations:
     K17U05D* C2017 10 22.09797 21 49 29.02 +14 40 02.4          21.1 GUEU200G96
     K17U05D  C2017 10 22.10324 21 49 30.38 +14 41 21.8          20.9 GUEU200G96
     K17U05D  C2017 10 22.11368 21 49 33.05 +14 43 57.9          21.1 GUEU200G96
     K17U05D  C2017 10 22.16358621 49 45.03 +14 56 14.4          21.0 GUEU200H01
     K17U05D  C2017 10 22.16996621 49 46.68 +14 57 49.1          20.6 GUEU200H01
     K17U05D  C2017 10 22.18011621 49 49.31 +15 00 19.0          20.5 GUEU200H01
     K17U05D  C2017 10 22.18343721 49 50.16 +15 01 07.8          20.8 GUEU200H01
     K17U05D  C2017 10 22.21545 21 49 59.05 +15 09 07.6          20.3 RoEU200926
     K17U05D  C2017 10 22.22032 21 50 00.43 +15 10 19.4          20.2 RoEU200926
     K17U05D  C2017 10 22.22521 21 50 01.68 +15 11 30.3          20.5 RoEU200926
     K17U05D KC2017 10 23.08305 21 54 42.07 +18 31 53.8          20.5 RqEU200734
     K17U05D KC2017 10 23.09356 21 54 44.61 +18 34 14.7          20.7 RqEU200734
     K17U05D IC2017 10 23.10400 21 54 47.15 +18 36 34.0          20.5 RqEU200734
     K17U05D  C2017 10 23.10907 21 54 51.21 +18 38 04.5          21.1 RoEU200926
     K17U05D  C2017 10 23.11291 21 54 52.10 +18 38 55.7          21.1 RoEU200926
     K17U05D  C2017 10 23.11674 21 54 53.04 +18 39 47.0          21.1 RoEU200926
     K17U05D  C2017 10 23.15304121 55 01.02 +18 47 39.0          21.1 GUEU200H01
     K17U05D  C2017 10 23.16459721 55 03.80 +18 50 11.0          21.0 GUEU200H01
     K17U05D  C2017 10 23.16908721 55 04.90 +18 51 09.9          21.2 GUEU200H01
     K17U05D  C2017 10 23.17599321 55 06.58 +18 52 40.1          21.2 GUEU200H01
     K17U05D  C2017 10 24.05854721 59 41.44 +21 56 39.8          21.5 GUEU200H01
     K17U05D  C2017 10 24.06355521 59 42.60 +21 57 40.0          20.7 GUEU200H01
     K17U05D  C2017 10 24.07287821 59 44.75 +21 59 31.5          21.5 GUEU200H01
     K17U05D  C2017 10 24.08424721 59 47.38 +22 01 46.9          21.1 GUEU200H01
     K17U05D  C2017 10 24.08966 21 59 49.39 +22 02 55.4          21.1 GUEU200I52
     K17U05D  C2017 10 24.09365 21 59 50.25 +22 03 42.7          21.4 GUEU200I52
     K17U05D  C2017 10 24.09764 21 59 51.14 +22 04 30.0          21.4 GUEU200I52
     K17U05D  C2017 10 24.10163 21 59 52.08 +22 05 17.4          21.5 GUEU200I52
     K17U05D  C2017 10 25.10517 22 04 40.55 +25 10 58.8          21.5 GUEU200I52
     K17U05D  C2017 10 25.10849 22 04 41.28 +25 11 34.2          21.1 GUEU200I52
     K17U05D  C2017 10 25.11180 22 04 41.99 +25 12 08.5          21.8 GUEU200I52
     K17U05D  C2017 10 25.11343122 04 41.65 +25 12 21.6          21.2 GUEU200H01
     K17U05D  C2017 10 25.12060622 04 43.19 +25 13 36.6          21.5 GUEU200H01
     K17U05D  C2017 10 25.13322222 04 45.92 +25 15 47.8          21.3 GUEU200H01
     K17U05D  C2017 10 25.13935022 04 47.23 +25 16 51.6          21.3 GUEU200H01
     K17U05D  C2017 10 26.07133 22 09 07.92 +27 49 33.0          21.6 GUEU200V06
     K17U05D  C2017 10 26.07332 22 09 08.31 +27 49 52.1          21.5 GUEU200V06
     K17U05D  C2017 10 26.07531 22 09 08.73 +27 50 10.7          21.4 GUEU200V06
     K17U05D  C2017 10 26.07730 22 09 09.12 +27 50 29.7          20.8 GUEU200V06
 
Observer details:
734 Farpoint Observatory.  Observer G. Hug.  0.69-m reflector + CCD.
926 Tenagra II Observatory.  Observers M. Schwartz, P. R. Holvorcem.  Measurer
    M. Schwartz.  0.81-m f/7 Ritchey-Chretien + CCD.
G96 Mt. Lemmon Survey.  Observer D. C. Fuls.  Measurers E. J. Christensen,
    D. C. Fuls, A. R. Gibbs, A. D. Grauer, J. A. Johnson, R. A. Kowalski,
    S. M. Larson, G. J. Leonard, R. G. Matheny, R. L. Seaman, F. C. Shelly.
    1.5-m reflector + 10K CCD.
H01 Magdalena Ridge Observatory, Socorro.  Observers W. H. Ryan, E. V. Ryan.
    Measurer W. H. Ryan.  2.4-m f/8.9 reflector + CCD.
I52 Steward Observatory, Mt. Lemmon Station.  Observer D. C. Fuls.  Measurers
    E. J. Christensen, D. C. Fuls, A. R. Gibbs, A. D. Grauer, J. A. Johnson,
    R. A. Kowalski, S. M. Larson, G. J. Leonard, R. G. Matheny, R. L. Seaman,
    F. C. Shelly.  1.0-m reflector + CCD.
V06 Catalina Sky Survey-Kuiper.  Observer E. J. Christensen.  Measurers
    E. J. Christensen, D. C. Fuls, A. R. Gibbs, A. D. Grauer, J. A. Johnson,
    R. A. Kowalski, S. M. Larson, G. J. Leonard, R. G. Matheny, R. L. Seaman,
    F. C. Shelly.  1.55-m reflector + CCD.
 
Orbital elements:
2017 UD5                                                 Earth MOID = 0.0123 AU
Epoch 2017 Sept. 4.0 TT = JDT 2458000.5                 MPC
M 351.91327              (2000.0)            P               Q
n   0.78250626     Peri.  325.86727     +0.97119324     +0.22853988
a   1.1663015      Node    21.23039     -0.15486889     +0.82056504
e   0.1532619      Incl.   10.73931     -0.18110584     +0.52387264
P   1.26           H   25.9           G   0.15           U   7
Residuals in seconds of arc
171022 G96  0.2-  0.5+    171023 926  0.2-  0.1+    171024 I52  0.3-  0.0
171022 G96  0.0   0.7+    171023 926  0.6-  0.0     171024 I52  0.2+  0.0
171022 G96  0.1+  0.3+    171023 926  0.3-  0.3+    171025 I52  0.1-  0.2-
171022 H01  0.4-  0.8-    171023 H01  0.3-  0.1-    171025 I52  0.1+  0.3+
171022 H01  0.3-  0.4-    171023 H01  0.4-  0.0     171025 I52  0.1+  0.1-
171022 H01  0.3-  0.2-    171023 H01  0.3-  0.0     171025 H01  0.1-  0.0
171022 H01  0.4-  0.4-    171023 H01  0.2-  0.2-    171025 H01  0.2-  0.0
171022 926  0.3-  0.0     171024 H01  0.1-  0.1+    171025 H01  0.0   0.1-
171022 926  1.2+  0.6+    171024 H01  0.1-  0.2+    171025 H01  0.1-  0.2+
171022 926  0.6+  0.0     171024 H01  0.3-  0.2+    171026 V06  0.3+  0.3-
171023 734  1.3+  1.1-    171024 H01  0.1-  0.0     171026 V06  0.0   0.1+
171023 734  0.8+  0.3-    171024 I52  0.7+  0.3+    171026 V06  0.0   0.1-
171023 734  0.5+  0.1+    171024 I52  0.0   0.1+    171026 V06  0.3-  0.1+

Ephemeris:
2017 UD5                 a,e,i = 1.17, 0.15, 11                  q = 0.9876
Date    TT    R. A. (2000) Decl.     Delta      r     Elong.  Phase     V
2017 09 26    15 42 09.0 -74 21 22   0.08537 0.9907    79.5    95.6    24.0
...
2017 10 11    20 17 34.7 -48 19 30   0.03954 1.0037    96.6    81.1    21.7
...
2017 10 19    21 30 46.2 -00 33 46   0.03717 1.0143   118.4    59.7    20.9
...
2017 10 25    22 04 08.8 +24 52 48   0.05147 1.0238   123.6    54.0    21.5
2017 10 26    22 08 44.5 +27 38 38   0.05459 1.0255   123.8    53.7    21.6
2017 10 27    22 13 08.2 +30 05 41   0.05783 1.0272   123.9    53.4    21.7
...
2017 11 02    22 36 20.2 +40 08 18   0.07908 1.0382   123.7    52.7    22.4
...
2017 11 10    23 02 16.0 +46 45 18   0.1099  1.0544   123.1    51.9    23.1
...
2017 11 25    23 47 00.9 +51 23 07   0.1711  1.0881   122.2    50.1    24.1

A. U. Tomatic                (C) Copyright 2017 MPC           M.P.E.C. 2017-U200



More information about the Iaude mailing list